Theta_e
325 324 324 324 321 321 319 312 298 300 298 292 292 294 295 307 307 304 301 304 301 303 305 307 309 307 306 306 305 302 302 304 302 298 297 307 319 321 322 322 322 322 322 323 326 326 325 328 330 330 330 330 329 328 328 326 326 326 327 328 325 324 325 325 326 326 326 325 326 327 326 326 325 326 326 325 325 325 324 324 323 324 324 323 323 322 321 320 319 320 321 321 321 322 322 323 321
322 322 323 321 320 318 309 310 296 294 293 289 293 298 297 303 301 299 301 301 302 302 306 307 307 307 306 305 305 307 304 305 306 304 309 317 320 320 321 322 322 321 323 324 324 323 325 326 329 329 330 328 327 326 326 326 326 326 326 325 326 326 326 326 326 325 324 325 324 325 325 325 325 325 324 324 324 324 323 323 322 323 323 324 322 322 321 320 319 320 319 319 319 320 321 322 320
320 321 322 321 319 315 311 307 296 290 289 289 291 296 303 297 297 298 300 302 304 304 306 306 305 303 303 303 302 302 299 309 310 311 311 318 314 316 321 322 323 323 323 322 321 322 324 326 328 329 329 328 328 326 326 326 325 326 325 326 325 325 326 326 325 325 324 324 323 323 324 323 324 323 323 322 322 322 322 322 321 322 322 321 321 321 321 319 318 319 318 318 318 319 319 320 320
319 320 320 314 309 309 301 300 293 292 289 288 289 299 299 297 297 299 301 304 305 307 305 304 301 304 302 299 300 306 304 306 310 312 310 314 315 319 321 322 321 322 321 321 322 323 324 327 329 327 327 326 325 327 326 325 324 325 325 324 324 324 325 325 324 323 323 322 322 322 322 322 322 322 322 322 320 320 321 321 321 321 322 320 320 320 320 319 318 318 318 318 317 317 318 318 319
320 322 319 311 307 303 300 295 294 292 291 291 290 297 299 298 298 299 301 303 305 306 305 303 299 302 303 300 302 301 303 309 311 313 313 316 320 320 321 321 321 319 319 320 321 321 323 327 326 325 326 326 325 325 326 324 324 324 324 324 323 323 323 323 323 322 322 321 321 321 322 321 320 321 321 321 320 320 319 319 319 319 319 320 320 319 318 317 317 317 317 316 316 315 316 317 317
321 320 321 314 305 309 303 295 292 292 294 296 296 297 299 300 299 300 301 302 303 306 305 303 301 300 299 301 303 300 305 304 310 312 315 315 319 321 320 320 319 318 319 320 320 319 322 325 324 324 324 324 324 324 325 324 325 324 324 323 322 322 321 322 320 321 320 320 320 319 319 319 320 319 320 320 320 320 318 318 318 318 318 318 318 317 316 316 315 316 316 315 314 314 314 315 316
318 316 314 311 310 308 296 291 291 293 297 300 296 299 301 302 301 300 300 300 302 302 303 302 301 301 298 301 303 306 306 308 309 312 316 318 319 319 319 318 317 316 317 319 318 318 319 324 325 324 324 326 325 324 325 324 325 323 324 323 322 321 320 321 320 319 319 319 318 318 318 318 318 318 318 318 319 318 317 317 317 316 315 316 316 315 314 314 314 314 314 314 314 314 313 313 314
321 314 309 303 298 301 294 292 293 296 298 300 299 303 304 304 302 301 300 300 298 298 301 301 301 299 297 303 298 305 306 308 308 311 317 318 318 318 318 317 316 316 316 317 317 317 320 326 325 324 323 323 324 323 324 323 324 324 324 323 321 319 318 319 318 319 318 318 317 316 317 317 316 317 317 317 317 317 317 316 315 314 313 313 313 313 313 312 313 314 314 314 313 313 313 312 312
316 311 310 300 296 296 293 294 296 301 299 299 300 303 307 304 303 302 300 302 301 303 302 303 302 297 297 298 297 302 305 308 310 312 315 317 318 318 318 317 316 315 316 316 317 318 318 325 324 324 323 325 324 323 324 323 323 323 323 321 320 320 317 316 319 317 319 317 317 316 315 316 315 315 316 315 315 315 314 314 313 312 312 311 312 311 311 312 312 312 313 313 312 312 312 311 311
311 310 302 299 294 291 290 291 294 296 296 299 300 301 303 304 303 304 302 300 301 302 303 303 303 298 300 297 298 303 305 309 310 312 312 315 318 318 317 317 316 315 315 316 316 317 317 320 324 323 323 324 323 324 324 323 322 322 320 319 318 317 317 316 315 317 317 316 316 316 315 314 315 315 314 314 314 314 313 312 312 311 311 310 310 310 311 311 311 311 311 311 311 311 310 310 309
306 308 306 296 289 288 289 291 297 298 297 295 298 300 301 301 304 304 303 303 304 301 302 304 301 299 300 299 300 304 306 309 310 311 312 314 314 317 316 316 316 316 314 315 314 315 317 318 320 323 323 323 323 323 322 321 321 320 319 318 316 315 315 315 314 315 315 316 315 314 314 314 314 314 314 314 313 312 312 311 310 310 310 310 310 310 310 310 310 310 310 310 310 310 309 309 308
303 301 301 292 291 290 291 292 295 299 296 296 296 299 297 300 302 300 300 298 301 301 301 304 301 303 299 299 299 303 306 307 310 313 312 309 310 317 316 316 316 316 315 313 313 313 314 316 318 319 323 322 322 321 320 319 319 318 318 317 316 315 314 314 314 314 314 314 314 314 314 313 312 312 312 312 311 310 310 310 309 309 309 309 309 309 308 308 309 309 309 309 309 308 308 307 306
304 301 296 294 291 293 292 295 295 297 296 296 297 299 299 299 300 301 301 301 301 300 300 304 306 305 297 298 302 303 304 307 310 312 309 305 306 313 316 315 315 314 313 312 311 311 312 312 314 315 319 321 320 320 319 318 317 317 316 316 314 314 314 313 313 313 312 312 311 312 312 311 310 310 310 310 310 309 309 308 308 309 309 308 308 307 307 307 307 307 307 307 307 306 306 305 305
306 303 298 294 293 294 295 295 296 296 295 294 293 296 298 299 302 303 302 299 300 299 301 306 305 304 298 298 297 299 303 308 309 306 303 304 305 310 314 314 314 312 311 310 310 310 309 309 311 313 313 312 312 315 317 317 316 315 314 314 313 313 312 312 312 311 311 311 311 310 309 309 309 309 308 309 308 308 307 307 308 308 308 307 307 307 306 306 306 307 306 306 306 305 305 305 303
306 304 297 293 291 292 293 294 294 294 296 292 294 294 295 300 301 303 302 300 300 301 303 308 306 301 297 297 296 299 304 308 306 303 302 303 303 311 313 313 312 310 310 309 309 308 307 307 307 307 307 307 307 307 308 313 315 314 313 313 312 312 312 312 311 311 310 310 309 309 308 307 307 307 308 307 307 307 306 306 306 306 306 307 306 306 305 305 305 304 304 304 304 304 303 303 302
306 299 295 292 288 290 290 292 288 293 292 293 293 296 296 295 297 300 302 302 299 298 303 301 302 300 300 300 300 303 306 307 304 300 301 302 303 310 311 311 310 309 309 308 308 308 307 306 306 305 305 305 305 305 307 308 313 313 312 312 312 311 311 311 310 310 309 308 308 308 307 305 305 304 307 304 306 305 304 303 304 304 305 305 305 304 305 305 304 303 302 301 301 302 302 301 300
301 298 293 285 288 289 290 286 288 288 290 290 293 295 294 293 295 297 296 299 296 298 299 298 300 302 299 301 302 305 307 306 302 300 301 300 303 307 309 309 308 307 307 307 307 307 306 305 304 304 304 304 305 305 305 306 309 312 311 311 311 311 310 310 309 308 308 307 306 305 301 294 293 294 295 294 301 295 301 302 302 302 303 303 304 303 303 304 303 302 301 299 298 296 296 297 298
301 295 288 287 287 290 289 287 286 291 288 289 291 294 291 290 292 295 296 296 297 297 298 296 299 299 299 300 302 307 305 302 299 299 299 299 303 306 307 306 306 305 306 306 306 305 304 304 304 303 302 303 304 304 305 306 307 308 305 306 306 308 309 308 305 301 303 299 303 296 291 292 289 289 291 296 292 295 295 300 300 301 301 301 302 302 302 302 302 301 299 298 296 294 292 281 283
298 290 289 288 287 291 287 287 287 288 288 289 292 294 292 292 291 292 292 291 294 295 296 294 296 296 298 300 303 304 303 301 298 298 298 299 302 305 306 305 305 305 305 305 305 304 303 303 303 302 302 302 302 302 303 302 301 300 300 301 303 305 303 299 297 298 294 294 291 290 291 289 288 288 288 290 291 297 295 297 298 299 300 300 299 299 299 300 299 299 298 296 293 291 282 279 279
297 293 288 288 289 287 287 288 288 289 290 289 290 292 291 292 293 293 292 289 292 293 294 291 293 295 296 297 301 302 302 301 299 298 298 299 300 305 306 304 304 304 305 305 304 304 303 302 301 301 301 301 301 300 299 297 297 296 296 296 296 296 295 294 294 293 291 290 289 288 287 288 288 286 294 295 296 292 294 295 296 296 295 294 293 293 296 296 296 295 294 292 291 285 279 279 279
295 294 289 288 288 287 287 287 287 286 288 289 290 290 290 291 292 292 290 290 290 293 297 295 293 295 296 296 299 300 301 300 298 298 298 298 299 304 306 305 305 305 305 306 305 303 302 301 301 300 300 300 299 298 296 295 293 293 293 292 292 291 291 291 291 290 289 288 287 287 285 287 286 287 289 290 286 286 283 283 284 283 284 284 289 279 281 285 282 279 282 284 280 282 279 279 279
294 293 290 289 286 288 287 286 287 286 287 288 288 289 289 291 292 291 291 289 289 292 296 297 297 297 296 295 297 299 300 300 299 298 298 298 298 301 304 305 305 306 306 304 304 303 302 301 301 300 299 298 297 297 295 294 293 291 290 290 289 289 290 289 289 288 288 288 287 286 287 286 286 287 288 286 285 284 282 281 281 281 281 282 284 279 278 278 277 278 279 280 278 279 278 278 281
290 287 286 286 285 287 287 287 286 286 288 287 286 289 289 291 288 291 291 292 291 292 294 298 297 297 298 298 298 298 299 299 299 298 298 298 298 299 302 303 301 302 302 304 304 303 301 301 300 299 298 297 296 295 293 293 290 290 290 289 288 288 288 288 288 287 287 288 287 288 287 285 286 285 285 285 284 283 281 280 279 280 279 279 281 278 278 278 278 277 277 277 277 277 277 277 278
293 287 286 287 287 287 286 287 286 285 286 287 288 289 289 288 287 288 290 294 293 290 288 292 295 297 297 296 296 298 299 299 299 300 299 299 299 299 301 301 300 301 300 302 302 302 301 300 300 299 298 296 295 294 292 291 290 289 289 292 290 291 289 288 288 287 288 288 288 288 288 286 285 284 284 282 282 281 281 280 280 279 278 279 280 279 278 277 277 277 277 276 277 277 277 277 276
290 287 286 286 286 286 285 284 285 286 286 287 287 287 286 287 288 285 288 293 291 289 291 292 294 296 296 296 295 297 298 299 299 300 300 300 300 300 300 300 300 298 299 299 300 300 300 300 300 298 297 296 295 293 291 291 290 289 289 289 287 293 288 288 287 287 287 287 288 288 287 284 283 283 282 282 281 281 280 280 278 278 279 278 279 277 278 277 277 276 277 276 275 276 276 276 277
288 288 286 286 286 285 284 285 285 285 286 286 287 285 284 284 286 286 290 289 288 288 292 292 294 294 294 295 295 296 297 298 299 299 299 300 300 299 299 300 300 298 298 298 297 299 300 300 298 297 296 295 295 293 292 291 290 289 289 289 287 292 287 287 287 286 286 286 286 287 287 285 284 283 282 280 281 280 279 279 279 278 278 278 277 278 277 276 276 276 276 276 276 275 276 279 277
288 286 285 285 286 285 286 285 285 285 286 285 285 283 284 285 286 284 287 288 287 289 291 290 293 293 294 295 295 296 296 297 298 300 300 300 299 299 300 301 301 300 298 297 296 297 299 299 298 297 295 296 294 293 292 291 291 289 290 289 288 289 287 287 287 286 285 286 286 286 286 286 284 283 282 281 280 280 279 279 278 278 277 277 278 277 277 277 276 276 277 276 276 275 275 278 276
286 285 285 285 283 284 285 284 284 285 286 285 285 284 282 283 284 285 289 285 288 290 289 290 291 292 292 293 294 295 296 297 298 298 298 298 299 300 300 300 300 300 298 297 296 297 297 298 298 297 295 295 294 292 293 291 290 290 290 289 288 288 287 286 286 285 286 285 285 285 286 285 286 283 282 281 281 280 279 279 278 278 277 277 278 277 278 278 277 277 276 276 276 276 276 275 276
286 287 284 283 283 284 284 284 284 285 285 285 284 283 281 282 282 289 287 284 287 288 288 289 290 291 291 292 293 293 295 296 296 297 299 300 301 302 300 301 301 299 299 298 297 296 295 297 297 296 295 295 293 292 292 292 291 290 290 289 288 288 286 286 285 285 285 285 285 284 284 284 286 283 282 282 284 280 280 279 278 279 277 277 278 278 278 277 277 277 277 279 276 275 276 276 278
287 286 284 282 279 280 284 285 284 285 285 284 285 277 276 279 286 288 284 284 285 285 285 288 289 290 290 291 292 293 293 294 295 297 299 300 301 301 301 302 300 299 298 298 297 296 296 296 296 296 295 294 293 292 292 292 291 290 290 289 289 287 286 286 286 285 285 284 284 284 283 284 285 283 282 281 282 280 279 279 278 278 277 277 278 278 277 276 276 276 276 277 281 276 276 276 275
284 284 283 279 278 277 283 284 283 284 285 284 286 277 279 282 284 285 283 285 285 285 285 286 287 288 289 290 291 292 293 294 295 296 298 299 301 301 301 302 299 298 297 297 296 296 295 295 295 295 295 294 293 292 292 292 291 290 289 289 288 287 286 286 285 284 284 284 284 284 283 284 284 282 282 282 281 280 279 278 278 278 277 278 277 277 277 277 276 276 277 275 276 274 274 277 274
282 281 277 276 279 276 281 284 283 282 284 284 284 277 280 284 284 283 282 284 284 284 285 284 284 286 287 288 290 291 292 294 294 295 297 298 299 300 301 301 299 296 296 296 296 295 294 294 295 294 295 294 293 292 292 292 291 290 289 290 288 287 286 285 285 284 284 283 284 283 283 283 283 282 282 282 280 279 279 279 279 277 278 277 277 277 277 276 275 276 277 275 274 274 275 274 275
277 279 274 277 277 277 281 284 283 284 284 284 283 280 280 282 283 282 282 283 283 284 284 283 284 284 286 287 288 290 291 291 293 294 296 297 298 299 300 300 299 296 296 296 295 294 294 294 295 294 294 294 293 292 292 291 291 290 289 289 287 287 286 285 285 284 283 283 283 282 283 283 283 282 282 281 281 280 279 279 278 278 278 277 277 276 276 277 275 277 276 276 275 273 275 273 274
275 277 277 277 279 278 278 280 283 282 283 280 282 279 280 284 282 282 282 282 281 282 283 284 284 284 285 286 287 289 289 290 291 293 295 297 298 298 299 299 299 296 295 295 295 294 293 293 293 293 294 294 293 292 292 291 291 290 289 288 288 286 286 285 284 283 283 282 282 282 282 283 284 281 281 281 280 280 280 279 278 277 278 277 276 276 276 276 275 276 275 276 275 274 274 274 274
278 276 277 278 276 278 279 279 282 283 283 280 279 279 281 283 285 285 284 282 282 282 284 284 284 284 284 285 286 287 288 289 291 293 295 296 297 297 297 296 296 295 294 294 294 294 293 293 292 293 293 293 292 292 291 290 290 289 288 287 287 286 285 285 283 282 283 282 282 283 282 282 284 281 281 281 280 280 279 278 278 277 278 277 276 276 275 276 275 275 275 275 275 274 273 274 274
280 279 277 277 276 277 279 280 282 282 280 279 279 279 283 284 285 286 283 282 282 283 283 284 284 284 284 284 285 286 287 288 291 292 294 295 295 296 296 296 295 295 293 293 293 292 292 292 292 292 292 291 292 291 290 288 287 287 286 284 284 285 285 284 282 283 282 282 282 282 282 282 282 282 281 281 280 280 279 278 278 277 277 277 276 275 275 275 275 274 274 274 274 275 276 274 273
281 279 279 278 278 278 279 280 282 283 281 279 281 281 280 282 283 284 284 281 281 282 282 283 284 284 284 284 284 285 286 288 291 291 291 293 294 295 295 295 294 294 293 292 292 291 291 291 291 290 291 290 290 289 288 287 286 285 285 285 285 285 285 284 283 282 282 282 282 282 282 282 282 282 281 281 280 281 279 278 278 277 277 277 276 276 276 276 276 275 275 277 274 273 274 273 273
282 280 278 277 277 277 279 281 283 282 280 275 276 277 278 280 282 283 283 280 280 281 282 282 283 284 284 284 284 285 286 288 288 289 290 291 292 293 293 294 293 292 293 292 292 291 291 291 290 290 290 289 289 289 289 288 287 287 286 285 285 285 284 283 283 282 282 283 282 282 282 282 281 281 282 281 280 280 279 278 278 277 277 277 277 277 276 278 276 275 274 273 275 274 273 274 273
279 279 276 276 276 277 278 280 280 282 280 278 276 276 279 281 282 284 283 282 282 282 283 284 283 283 283 284 284 285 285 286 287 289 289 291 291 292 293 293 293 293 294 293 293 292 291 290 290 289 289 289 288 289 288 287 287 287 287 286 286 284 285 285 285 284 283 283 282 282 282 282 281 281 281 281 280 280 279 278 278 278 277 278 277 276 276 275 275 275 274 274 273 273 274 274 273
279 277 276 274 275 275 274 277 277 280 278 277 277 276 279 282 281 279 280 280 280 282 283 283 284 283 283 284 284 285 285 286 286 288 288 290 291 291 292 292 292 292 293 293 293 293 292 291 290 289 289 289 288 288 289 288 287 287 286 284 284 285 283 284 284 283 282 282 281 281 282 282 281 281 280 280 280 280 279 279 279 278 278 278 277 276 275 275 275 274 274 274 274 272 272 272 274
274 278 276 275 276 277 277 275 276 278 275 278 277 276 276 274 274 277 279 278 280 280 280 281 282 283 283 283 283 285 285 286 287 287 288 288 289 290 291 292 292 292 292 293 293 293 293 292 291 290 289 288 288 288 288 287 286 284 283 282 282 282 281 281 281 282 281 281 281 280 281 281 281 281 280 280 280 280 279 279 278 278 278 277 277 276 276 276 275 275 275 274 274 273 272 271 273
272 273 278 277 277 277 275 275 276 273 270 277 277 272 270 272 275 277 280 278 280 278 279 280 280 280 280 282 283 284 285 286 287 287 288 288 289 290 290 291 291 291 292 292 293 294 294 293 291 290 289 288 288 287 287 287 286 285 282 281 280 280 280 280 280 281 281 280 281 282 280 281 281 280 280 280 280 280 279 279 278 278 278 277 277 277 276 276 275 275 275 274 274 274 273 272 271
273 273 278 277 276 277 276 276 274 267 267 273 277 270 270 274 277 279 278 277 279 281 278 280 279 280 280 282 284 284 284 284 285 286 287 287 288 289 289 290 291 291 292 293 293 292 292 293 292 291 289 288 288 287 286 286 285 284 283 283 283 282 282 282 283 283 282 282 281 281 281 280 280 280 280 280 279 280 279 279 278 278 278 277 278 277 276 276 276 276 276 275 274 275 273 271 271
273 275 276 276 277 277 276 277 275 272 274 277 278 274 266 269 278 277 275 277 280 279 280 279 280 280 281 282 284 284 284 284 285 285 286 287 288 289 289 290 291 291 292 292 292 292 291 291 291 290 290 289 288 287 286 286 285 284 283 283 283 283 283 284 283 282 282 282 281 281 280 279 280 280 280 279 279 279 279 279 278 278 278 278 278 277 276 276 276 276 276 275 275 274 273 273 272
274 278 277 279 278 277 277 276 275 274 272 273 272 276 272 267 276 276 275 278 279 279 279 279 281 282 282 283 284 284 284 284 285 285 285 285 287 288 290 290 291 291 292 291 291 292 292 291 291 290 289 289 288 286 286 285 286 285 284 283 283 284 284 284 284 283 281 281 280 280 280 279 279 279 279 279 279 279 280 279 278 278 278 277 278 277 277 276 276 275 275 275 274 274 273 273 273
277 279 278 277 278 278 277 275 275 270 270 268 272 276 269 272 274 275 271 278 277 278 279 280 281 283 284 284 284 284 284 284 284 285 285 285 286 287 289 291 290 290 291 291 291 291 290 290 290 289 288 289 288 286 286 285 285 286 284 284 283 283 284 284 283 281 280 280 280 280 280 279 279 278 279 279 279 279 279 279 278 278 278 277 278 277 276 276 276 275 275 275 274 273 274 273 273
280 278 278 274 275 275 275 273 269 266 265 269 273 275 273 268 276 277 277 276 277 277 278 278 277 279 282 283 284 285 285 285 284 284 285 285 286 286 286 288 289 289 289 289 289 289 289 288 288 288 289 289 288 287 285 285 285 285 285 284 283 283 284 283 283 282 280 278 279 280 279 279 279 278 278 279 279 279 278 279 279 278 278 278 277 277 276 276 276 275 275 275 274 274 273 273 274
278 276 275 272 273 271 271 268 267 265 264 268 271 274 273 266 273 275 276 276 274 279 281 282 282 282 282 283 284 285 285 285 284 284 284 284 283 283 283 285 286 286 286 286 287 287 287 287 287 287 288 288 287 287 286 285 284 284 284 284 284 284 284 284 283 283 282 281 280 280 279 279 278 278 278 278 278 278 278 278 279 278 278 277 277 277 277 277 276 275 275 275 274 274 274 273 272
276 274 271 268 265 264 265 263 266 264 264 272 272 275 272 273 278 281 280 278 279 277 281 283 283 282 282 281 282 285 285 283 284 284 284 283 284 284 283 284 283 283 285 285 286 286 286 286 286 285 286 287 287 286 285 285 284 284 284 284 284 284 284 283 283 283 283 282 282 280 279 278 278 277 278 277 278 278 278 278 278 278 277 277 277 277 277 277 276 275 275 274 274 274 273 273 272
275 274 268 265 263 259 260 260 260 261 269 272 272 274 271 274 277 281 281 284 285 283 282 282 283 283 284 283 282 282 284 284 284 284 284 284 284 284 284 284 284 284 284 285 285 285 285 286 285 284 285 286 285 285 285 285 285 285 284 284 284 284 284 283 283 283 283 283 283 281 280 280 279 278 278 278 279 278 278 278 278 278 278 278 277 277 277 277 276 275 275 274 274 274 274 273 273
275 274 272 267 260 262 262 256 265 269 265 270 272 267 267 267 278 276 280 282 281 279 280 280 281 281 282 281 279 279 281 282 283 283 284 285 284 284 284 284 284 284 284 284 284 284 284 284 284 284 284 284 284 284 284 284 285 284 284 284 284 284 284 283 283 283 283 283 283 282 282 281 280 279 279 279 279 278 278 278 278 278 278 278 277 277 277 277 276 276 275 274 274 274 274 274 273
274 273 272 269 269 267 266 261 260 258 261 265 265 269 271 276 278 280 281 280 280 281 279 278 279 279 279 280 281 282 282 283 283 283 283 283 283 283 283 282 283 283 283 282 282 283 283 283 284 284 284 284 284 283 283 284 284 284 284 284 284 284 284 283 283 283 283 283 283 282 282 282 281 281 280 279 279 278 278 278 277 277 278 277 277 277 277 276 276 275 275 274 274 275 274 273 273
272 274 268 270 273 273 266 267 269 267 262 265 265 270 273 276 282 283 282 279 281 277 276 276 279 279 278 279 281 281 282 282 281 283 283 283 281 281 282 283 283 282 282 283 283 283 283 283 283 283 283 283 283 283 283 283 283 283 283 283 283 283 283 282 283 283 283 283 282 282 282 282 282 281 281 280 279 278 278 278 277 277 277 277 277 277 277 276 276 275 275 274 274 274 274 273 273
273 268 271 274 275 274 269 265 261 260 261 266 269 270 270 270 274 276 278 277 279 278 278 277 277 276 278 280 280 280 280 280 280 281 281 281 281 282 282 282 282 283 284 283 284 283 283 283 283 283 283 282 282 282 282 282 282 282 282 282 282 283 283 283 283 283 283 282 282 282 282 282 282 282 282 282 280 278 278 278 277 277 277 277 277 277 277 276 276 275 275 275 275 274 273 273 273
274 271 275 274 266 267 267 262 262 260 260 263 263 267 267 273 278 279 280 279 281 281 280 279 279 278 278 279 279 279 278 279 279 280 281 281 281 282 282 283 282 281 282 283 283 282 281 281 282 283 283 283 283 283 282 282 282 283 283 283 282 282 283 283 283 283 282 282 282 282 282 282 282 282 282 281 281 279 278 277 277 277 277 277 277 277 277 276 276 275 275 275 275 274 273 273 273
277 277 275 275 271 263 263 269 261 263 265 260 268 264 268 275 276 279 281 279 280 280 279 278 277 278 278 279 280 279 278 279 279 279 281 282 282 283 282 282 282 282 282 282 281 281 282 282 281 282 282 282 282 282 282 282 282 282 283 283 282 282 282 282 282 282 282 282 282 282 282 282 282 282 282 282 281 280 279 278 277 277 277 277 277 277 277 276 276 275 275 275 274 274 273 272 272
272 272 268 270 271 273 270 266 266 268 260 259 262 267 271 273 279 280 281 280 279 278 279 278 278 277 277 276 277 278 277 277 278 279 281 282 282 282 281 281 281 280 279 279 280 280 281 281 281 281 282 282 282 283 281 282 282 282 282 282 282 282 282 282 282 282 282 282 282 282 282 282 282 282 282 282 281 281 280 279 278 277 277 277 276 276 276 276 276 275 275 275 274 274 273 273 273
275 275 272 275 270 268 266 269 265 263 265 265 260 269 275 274 279 280 278 278 278 278 277 277 277 276 277 276 276 276 277 278 278 278 278 279 279 279 279 279 278 279 280 279 279 279 280 280 281 281 280 282 282 283 282 282 281 282 281 282 282 282 283 282 282 282 281 282 282 282 282 282 282 282 282 282 282 282 281 279 278 277 277 277 277 276 276 276 275 275 275 275 274 274 273 273 273
Wind_Speed
7 6 5 1 1 2 0 5 0 1 2 3 1 0 2 1 1 1 0 0 0 1 2 2 2 1 2 2 5 6 2 5 1 10 6 2 4 8 9 11 9 8 7 5 7 7 10 16 18 19 20 19 19 19 17 15 15 16 16 18 16 15 14 16 16 16 15 15 16 17 17 16 17 17 17 17 16 16 18 19 18 16 17 17 18 19 19 18 19 19 19 20 20 21 21 21 21
5 6 4 1 1 1 1 2 2 1 3 2 5 1 2 0 2 1 3 1 1 1 1 5 5 6 7 7 9 3 3 6 1 1 1 3 8 7 7 10 10 10 8 7 5 5 9 12 18 17 20 20 16 15 15 16 17 16 16 15 16 15 16 16 16 16 16 15 15 16 16 17 17 16 16 17 17 17 17 17 17 17 17 17 17 17 19 18 18 19 19 20 20 21 21 21 21
6 5 5 4 4 3 2 2 2 1 1 4 4 3 0 1 2 2 2 4 6 6 2 2 3 3 3 3 2 1 1 2 3 1 4 9 12 7 8 8 10 10 9 4 3 5 7 10 15 15 19 19 19 17 18 16 16 17 15 17 15 16 17 16 16 16 15 15 15 15 16 16 16 16 16 16 17 17 17 16 16 16 16 17 18 16 18 18 18 18 19 20 20 20 21 21 21
4 1 0 2 0 3 1 1 2 4 2 4 2 1 2 4 4 4 1 2 5 5 2 2 2 1 1 1 1 3 3 1 3 3 6 8 2 10 9 9 9 8 6 3 5 6 7 13 15 15 18 17 14 19 19 18 14 16 17 15 15 15 16 16 16 16 15 16 15 14 13 14 15 15 15 15 16 17 16 16 16 15 16 16 16 16 17 18 18 18 18 19 19 20 20 20 21
4 2 2 1 3 1 2 1 2 2 4 2 2 1 2 3 6 3 1 1 1 1 1 3 2 3 0 2 2 2 4 3 1 4 2 3 9 9 10 10 10 9 8 6 5 4 5 13 15 16 16 19 18 17 19 16 14 14 15 16 15 14 15 15 15 16 16 15 15 14 14 14 14 15 16 15 16 16 15 15 14 15 16 15 16 15 17 16 17 17 18 18 19 19 20 20 20
2 3 3 3 1 1 3 0 1 3 5 2 2 3 2 4 7 3 1 0 0 0 1 2 2 3 2 2 1 1 1 7 1 1 1 8 11 11 11 8 9 9 9 8 4 4 6 16 15 15 15 16 19 13 17 16 17 16 15 15 15 14 15 14 14 15 14 15 14 13 13 14 14 14 14 16 16 16 16 14 14 15 14 14 15 15 15 15 16 16 17 17 18 19 19 19 19
2 3 4 4 2 2 4 2 3 3 3 2 2 2 6 6 6 7 3 1 0 1 1 3 3 2 0 1 1 1 2 2 2 2 2 9 11 11 11 9 9 9 9 8 7 7 9 14 17 16 14 19 21 19 18 16 18 18 17 17 15 16 15 16 16 14 14 14 13 13 13 14 13 13 14 15 16 15 16 14 14 14 13 13 14 14 14 14 15 15 16 17 17 18 18 18 19
0 1 1 1 1 1 0 2 3 3 2 3 2 5 8 7 8 6 7 5 3 3 0 1 3 1 2 2 2 1 1 1 3 4 6 9 10 10 10 9 11 9 8 7 7 7 10 16 18 17 16 14 17 17 18 16 18 17 19 19 16 13 14 16 14 15 14 14 13 13 13 14 13 13 13 13 13 15 15 14 15 14 13 13 13 13 13 13 14 14 15 16 17 17 17 18 18
3 3 0 4 0 1 0 2 4 1 1 1 3 3 6 9 10 8 7 3 2 1 3 2 1 2 2 1 1 2 3 1 1 2 5 7 10 9 7 9 10 10 10 8 7 7 6 14 15 15 15 17 18 16 17 16 17 18 19 17 17 17 13 10 17 14 16 15 14 14 13 13 12 12 13 13 12 13 13 14 13 13 13 12 12 12 12 12 13 14 15 15 16 16 16 17 17
1 1 2 1 2 1 1 4 2 4 5 6 4 3 3 4 7 7 9 4 3 4 3 1 1 2 3 3 1 1 2 1 1 3 3 5 7 9 9 9 10 12 9 7 7 5 3 12 15 15 15 18 16 18 17 17 17 17 16 16 16 14 14 14 11 15 13 14 14 13 13 12 12 13 13 12 13 13 13 12 12 12 12 12 12 11 12 12 12 13 14 15 15 16 16 16 16
1 2 2 2 1 0 3 4 4 1 1 1 1 2 1 2 2 2 3 2 3 5 2 2 1 3 3 1 2 1 2 2 5 10 6 4 4 10 9 10 10 11 10 8 5 3 3 8 14 14 15 17 17 18 18 17 17 17 17 15 13 13 14 14 12 13 13 13 14 13 13 13 12 12 12 12 12 12 12 12 11 11 11 11 11 11 11 11 12 12 13 14 15 15 16 16 16
1 1 1 2 3 4 3 2 3 1 2 1 3 5 3 5 3 5 5 5 5 2 5 5 3 8 3 1 3 1 1 4 6 7 6 3 4 10 11 8 10 9 10 8 5 4 3 6 7 12 17 16 16 17 16 16 16 16 16 16 15 15 15 14 13 13 12 13 14 13 13 13 11 11 11 12 11 11 12 11 11 10 10 10 10 11 11 11 11 12 13 14 15 15 15 15 16
1 1 2 2 3 2 2 1 5 1 1 4 3 2 5 5 6 5 7 3 5 5 4 8 2 3 4 5 1 2 5 8 7 6 4 2 4 5 9 9 9 9 8 7 8 6 5 5 6 6 12 15 13 14 13 14 16 17 17 16 15 13 14 14 14 14 13 11 11 12 14 13 13 11 12 12 11 10 10 10 10 9 9 9 10 10 11 11 11 12 13 13 14 14 15 15 15
1 2 3 2 0 2 1 2 1 1 4 1 0 2 6 5 5 3 6 6 8 9 1 9 5 3 1 2 2 4 7 8 6 4 2 1 1 5 10 9 10 8 7 8 9 8 7 6 7 7 7 6 6 9 11 12 12 13 13 14 15 14 14 14 13 12 12 13 12 13 11 12 11 12 11 13 11 11 10 9 9 9 9 9 10 10 10 11 11 12 12 13 13 14 14 14 15
1 1 2 0 2 1 2 2 2 1 5 2 1 5 3 3 2 5 9 8 8 1 1 2 4 3 5 10 5 9 10 10 5 3 2 2 1 7 10 9 10 8 7 8 8 10 8 8 8 7 6 5 6 5 4 9 13 13 15 16 16 16 15 15 15 15 14 13 14 14 11 12 12 12 11 11 11 11 9 8 9 9 9 9 10 10 10 11 12 12 12 12 13 13 14 14 14
2 3 2 0 2 1 4 1 0 0 4 0 3 1 3 0 0 4 4 2 1 1 3 5 2 4 0 8 1 10 11 9 7 5 4 3 2 7 9 10 9 8 7 8 8 8 9 9 8 7 7 6 5 5 6 6 11 15 16 16 16 16 16 16 16 15 16 14 14 14 12 9 9 9 12 9 11 10 9 7 8 9 9 9 10 10 10 11 12 12 12 12 13 13 13 13 13
2 3 0 2 3 1 3 1 0 2 1 1 1 3 5 3 1 0 1 3 5 4 4 1 5 1 2 2 1 9 11 10 7 7 6 5 6 7 7 7 7 6 4 7 8 8 8 10 9 8 7 7 7 6 6 6 9 15 13 16 17 16 16 16 17 18 15 13 13 12 10 7 5 4 5 4 8 4 8 8 8 8 9 9 10 10 10 11 11 12 12 13 13 13 13 13 13
1 2 3 2 3 1 3 3 3 0 1 2 4 6 3 3 1 2 2 0 1 3 7 1 2 2 2 3 2 10 10 12 10 10 8 8 7 9 9 8 9 9 8 7 7 8 8 8 10 9 8 8 7 6 5 5 6 8 7 8 8 12 14 14 12 8 8 7 12 8 6 5 5 4 4 5 3 4 5 9 8 8 9 9 9 10 10 11 11 12 12 13 13 13 13 7 7
3 1 2 6 4 4 3 1 1 1 4 4 6 6 4 4 7 3 3 3 3 3 5 2 4 4 2 2 5 12 13 12 11 10 11 12 10 13 11 9 10 10 9 8 8 9 8 8 9 10 9 8 8 6 5 4 6 5 5 6 7 8 9 8 8 8 6 7 6 6 6 5 5 4 4 4 4 7 5 9 8 8 9 9 9 9 9 10 11 11 12 12 13 13 7 5 5
4 5 4 5 5 2 2 1 2 2 1 3 4 5 6 3 5 2 3 4 4 10 8 4 8 10 5 2 7 11 13 13 11 11 12 12 11 14 13 13 12 12 11 10 9 8 8 9 9 10 10 9 9 6 5 5 5 5 5 5 5 6 6 7 7 7 7 7 7 6 6 5 5 5 7 9 7 4 5 8 9 8 9 9 9 6 8 9 10 11 12 12 8 4 4 4 5
2 2 4 4 5 3 4 3 3 3 3 2 5 1 5 4 4 5 3 3 8 10 10 14 17 14 10 7 9 10 13 13 12 11 12 11 10 10 12 14 13 12 10 9 9 10 10 9 9 9 9 9 8 7 7 6 6 5 5 5 6 6 6 6 6 6 6 8 7 6 6 5 5 5 4 4 4 3 3 4 4 4 4 4 7 5 5 4 5 6 5 5 4 4 4 5 4
3 4 2 2 2 1 3 3 3 2 3 2 3 6 7 2 1 6 7 8 9 11 14 14 11 10 13 12 10 10 14 16 16 15 15 15 15 13 10 10 9 10 9 11 11 10 11 10 10 9 9 8 9 9 8 7 7 7 6 6 6 5 6 7 6 6 7 8 7 7 6 6 6 5 4 4 4 4 4 4 4 4 4 4 4 5 4 4 4 3 4 4 3 3 4 3 3
5 1 0 0 2 1 1 1 2 1 0 4 4 5 3 7 2 6 8 13 7 4 4 12 10 10 13 12 13 13 15 17 17 17 16 14 13 12 12 11 11 11 10 11 11 10 10 11 10 10 10 9 9 7 7 7 7 7 7 7 7 7 6 7 7 6 7 8 7 8 8 7 6 6 6 5 5 4 5 5 5 5 4 4 3 5 4 3 4 4 4 3 3 4 3 3 3
4 5 1 2 0 4 3 2 2 0 5 3 3 2 4 4 5 1 8 17 8 2 1 3 4 8 11 12 13 17 18 18 19 18 18 18 18 17 14 13 10 8 9 11 11 11 11 12 12 12 11 11 9 8 8 7 6 7 7 7 7 8 8 8 7 7 7 8 7 7 7 7 7 7 6 6 6 5 5 5 5 5 4 4 3 6 5 4 3 4 4 3 3 3 4 3 3
4 1 3 1 0 1 2 2 1 0 0 0 2 2 4 6 5 1 10 17 6 3 0 2 6 10 10 13 14 14 15 15 16 16 11 9 9 8 7 7 8 9 12 12 11 11 12 12 12 13 11 12 10 10 9 8 7 7 7 7 8 8 8 8 8 7 7 7 7 7 7 7 6 7 7 6 6 6 5 5 6 6 5 5 4 4 5 5 4 3 4 4 4 3 3 3 3
1 2 3 1 2 3 3 0 1 1 1 1 0 5 5 5 4 7 19 10 6 3 2 4 8 11 13 14 15 15 15 17 16 14 16 11 9 11 11 11 10 11 12 11 11 11 11 12 13 14 13 12 11 11 9 8 9 9 9 9 8 8 8 8 6 7 7 7 7 7 8 8 8 8 7 6 7 6 6 5 5 6 6 4 5 5 4 6 5 3 3 3 4 3 3 2 3
2 2 2 3 2 2 1 3 2 2 1 1 3 3 3 1 2 9 2 5 6 4 5 4 10 13 13 11 12 13 15 16 17 15 10 10 10 12 13 12 13 13 11 12 12 11 11 13 13 13 12 11 10 11 10 10 10 10 10 9 8 8 8 7 7 7 7 7 8 8 7 7 7 7 7 7 6 6 6 6 6 5 6 5 5 5 3 5 5 5 5 5 4 3 4 2 3
2 4 2 2 3 2 2 1 4 0 2 3 3 4 3 2 0 11 10 1 9 9 5 6 7 9 11 11 11 11 11 13 11 10 16 16 14 15 15 14 15 13 14 14 11 10 12 15 15 14 13 12 12 11 10 10 10 10 10 8 9 8 8 7 8 7 8 7 7 8 7 7 7 7 7 7 7 7 6 6 6 6 6 6 5 5 5 5 5 4 4 4 3 3 3 3 2
2 1 1 3 3 3 2 4 3 2 2 3 2 2 5 3 7 19 7 3 5 7 8 7 8 8 9 10 10 10 13 11 10 12 17 18 16 13 16 14 13 13 10 12 11 11 14 14 14 14 13 12 13 12 11 10 10 9 8 9 9 8 8 7 8 8 8 7 7 8 7 8 7 8 7 8 7 7 7 7 6 6 6 6 6 5 5 4 4 4 4 2 3 2 3 3 2
2 2 0 5 5 5 5 0 1 3 2 3 1 5 7 10 17 13 1 5 3 4 6 8 8 7 7 8 10 11 9 9 12 16 15 14 13 13 15 14 13 12 10 9 12 14 12 9 10 10 12 14 13 11 10 10 10 9 8 8 8 8 8 8 9 8 8 7 7 8 7 8 7 7 8 7 7 7 7 7 7 7 6 6 6 6 6 5 5 4 4 3 4 3 4 4 4
1 2 2 0 3 3 3 1 2 2 1 3 0 4 9 10 12 10 4 6 9 9 9 9 8 7 7 9 9 11 11 12 15 15 12 12 11 11 13 12 12 12 9 10 15 16 12 11 10 10 12 13 13 12 12 11 10 10 9 9 8 9 9 9 8 8 7 8 8 8 8 8 8 8 8 9 8 7 7 7 7 7 7 6 6 6 6 5 5 6 5 5 3 3 3 3 4
1 3 4 4 1 6 7 2 5 4 0 3 2 5 13 11 12 5 2 5 7 9 9 9 9 9 9 8 10 10 11 11 11 10 12 12 12 12 14 15 12 11 14 14 12 11 14 13 12 12 13 14 14 13 12 12 11 11 10 9 8 9 8 9 8 9 9 8 8 8 8 8 8 9 8 8 8 8 8 8 8 7 7 6 6 5 5 6 5 5 4 5 5 4 3 3 2
4 2 4 4 0 6 8 0 2 3 1 1 5 9 8 10 10 5 3 6 7 9 9 9 11 12 10 9 10 11 9 8 11 13 13 13 13 13 13 14 13 14 12 11 13 13 13 14 14 14 15 15 14 13 12 10 10 10 10 10 10 9 9 9 8 8 7 8 7 8 8 9 8 9 9 9 9 9 8 8 7 8 7 7 7 6 6 6 6 5 4 4 5 5 5 4 3
2 1 2 2 3 4 4 6 1 1 2 3 2 5 13 13 9 4 1 6 6 9 12 11 11 10 12 11 11 11 11 11 14 14 16 16 14 14 12 11 12 11 10 12 13 15 15 13 12 13 13 14 13 13 12 12 11 10 9 9 9 10 10 9 8 8 8 8 8 9 9 10 9 9 9 9 9 9 9 8 7 8 8 7 7 6 7 5 5 6 6 4 5 5 6 6 5
2 2 3 7 2 3 6 3 2 0 0 4 3 7 19 18 17 14 10 7 9 13 13 13 13 12 12 11 12 12 12 13 15 14 17 16 14 12 11 10 11 10 10 12 12 12 11 11 11 12 13 12 12 12 11 10 9 8 7 7 8 9 7 7 7 7 8 7 9 10 10 10 9 9 10 10 9 9 8 7 8 8 8 8 7 7 6 5 6 6 7 6 4 5 6 5 5
3 4 4 2 6 5 4 5 3 2 4 4 6 11 16 18 16 15 6 9 12 16 12 11 11 10 10 10 10 10 11 15 15 14 13 11 11 12 12 11 10 10 10 9 11 11 12 11 11 11 12 12 10 9 9 8 8 9 9 6 7 9 9 8 7 8 7 9 10 9 10 10 9 10 11 10 10 9 8 8 9 9 8 8 8 8 7 7 10 8 8 7 6 4 3 4 3
1 1 0 5 5 6 5 5 3 0 2 8 11 11 14 19 20 20 13 6 11 13 13 14 12 11 11 10 11 13 14 17 15 10 8 10 12 12 11 10 10 10 10 9 10 11 12 14 13 15 12 11 11 10 10 10 11 8 7 11 14 11 10 9 9 9 9 10 10 11 10 10 10 10 10 10 10 9 9 8 8 8 8 9 9 11 11 11 9 8 7 5 8 6 5 4 3
1 1 1 6 2 7 4 1 1 2 1 5 3 9 17 19 19 19 10 5 13 13 14 14 15 13 12 12 13 14 16 10 3 6 10 11 11 12 11 10 10 13 12 12 14 14 14 14 14 13 10 11 12 13 12 11 11 13 14 14 12 10 9 10 11 10 12 11 11 11 11 11 11 11 11 11 10 11 10 9 9 10 10 10 10 9 8 7 7 7 6 5 4 8 7 6 6
1 2 2 2 6 5 8 1 2 1 1 11 4 8 18 21 19 19 13 10 10 9 12 14 14 13 12 12 12 12 9 12 10 10 9 11 13 13 12 12 12 15 15 16 15 13 13 12 12 11 12 12 12 13 11 12 11 11 11 9 11 8 8 9 10 10 9 10 11 12 12 12 12 11 11 11 11 11 11 11 12 10 11 10 9 9 8 9 9 10 10 10 7 4 5 4 8
2 1 0 5 3 3 6 3 3 2 2 6 6 12 17 19 12 11 10 5 5 6 9 13 11 12 13 14 14 13 14 14 13 13 13 13 13 13 12 12 13 12 13 13 14 16 13 13 13 13 13 13 12 12 13 12 11 10 8 5 5 8 6 8 8 6 8 9 11 11 11 12 12 12 12 12 11 11 12 13 11 11 12 11 12 11 11 12 10 9 9 9 8 8 7 7 8
1 2 2 3 2 2 4 5 5 6 3 1 7 9 10 5 7 8 7 0 3 5 4 7 8 8 8 6 6 10 14 14 14 12 10 9 11 13 15 16 14 14 15 15 16 15 13 16 16 15 13 13 12 12 14 11 8 6 6 2 2 4 0 4 6 10 11 10 10 11 15 11 11 12 11 13 12 13 12 11 11 11 11 12 11 11 12 13 13 13 14 12 12 12 10 7 7
4 5 5 3 1 2 4 5 9 7 4 1 5 8 7 5 8 9 10 6 10 3 4 7 7 6 6 8 13 11 11 10 13 14 14 14 15 14 13 13 14 14 15 16 16 16 15 15 14 14 12 11 12 13 13 10 10 11 9 9 9 8 10 9 13 16 13 13 16 13 8 11 12 12 12 12 13 11 12 12 11 11 12 11 11 11 11 10 12 12 13 12 13 12 9 8 8
1 3 4 3 2 1 1 4 6 5 3 1 3 3 10 6 10 8 6 7 13 10 5 9 6 6 7 11 12 11 12 11 9 8 7 9 11 11 13 14 16 16 17 15 13 14 15 15 14 14 13 12 11 11 11 10 10 10 13 14 14 14 15 14 13 10 10 10 8 10 11 10 12 13 12 12 12 13 12 11 12 12 12 11 11 10 11 13 12 13 11 12 13 11 8 11 12
2 1 4 3 1 1 2 1 1 6 3 5 1 6 4 9 13 2 3 7 11 12 11 7 8 7 9 10 11 11 11 9 10 11 11 11 12 14 16 17 15 17 17 12 12 12 14 15 14 14 12 12 11 10 12 12 13 12 13 13 13 14 15 16 12 11 7 7 10 11 9 10 11 12 12 12 12 13 12 12 12 12 12 11 11 12 13 11 10 9 12 13 11 11 12 12 11
2 2 4 1 1 2 1 1 3 2 4 9 2 2 0 5 11 3 4 6 9 10 10 9 8 8 9 10 11 11 11 10 10 10 11 12 13 14 14 13 16 15 13 12 13 13 14 14 14 12 13 13 11 12 12 13 13 13 13 12 14 14 14 13 8 6 8 8 10 9 11 10 10 12 13 12 13 13 13 13 13 13 12 12 11 11 11 11 13 13 13 12 13 12 11 11 8
1 2 2 2 1 1 1 1 0 3 2 8 2 4 1 10 8 7 1 1 7 9 10 9 8 9 9 9 10 11 8 7 7 10 10 11 12 12 13 12 10 13 12 12 11 10 11 10 12 13 14 12 12 12 13 14 15 13 13 14 16 15 12 11 8 8 8 8 11 11 11 10 10 10 12 13 12 13 14 13 13 14 14 13 11 12 12 13 13 13 14 14 14 14 11 12 13
2 2 0 2 5 2 2 3 1 3 1 9 4 6 2 5 9 8 2 5 7 6 7 7 7 8 10 10 11 10 9 9 8 9 9 9 8 9 7 10 12 8 8 8 10 10 10 10 12 13 16 13 12 13 13 15 14 14 15 16 17 17 16 13 11 12 9 7 11 11 11 11 10 11 11 12 14 14 15 14 14 14 12 12 13 13 14 14 13 13 13 13 14 16 13 13 12
1 0 1 4 1 5 2 2 4 1 6 6 2 6 3 3 10 7 9 5 5 6 8 10 11 9 10 9 10 11 9 8 8 7 8 7 5 5 5 8 8 8 6 9 10 9 10 11 11 14 14 14 12 12 12 14 13 14 15 16 17 18 16 13 15 16 14 14 13 12 10 9 10 10 10 11 13 14 14 14 14 13 13 13 14 13 13 12 12 11 11 12 13 14 12 12 12
4 3 3 2 5 4 3 2 2 4 6 1 1 4 3 11 17 13 8 12 11 10 10 12 11 12 10 8 9 9 8 6 7 8 7 6 8 8 8 9 6 7 10 11 11 11 10 10 11 13 15 14 13 12 13 14 13 14 15 16 16 15 15 15 15 15 13 13 12 12 10 11 10 10 12 13 14 15 14 14 14 14 14 14 15 13 14 13 12 12 13 13 14 14 15 15 13
4 2 3 2 1 1 3 6 2 5 6 3 0 1 5 7 10 15 20 22 16 13 14 13 11 13 13 11 7 7 7 8 8 8 7 8 8 8 8 8 8 9 9 11 10 10 9 10 11 12 17 13 11 11 13 13 15 16 15 15 15 14 14 14 14 14 14 12 11 12 12 12 12 14 13 15 14 14 14 15 14 15 15 14 14 15 14 13 13 13 13 14 15 14 12 15 15
7 2 6 6 5 2 4 3 5 7 6 2 4 2 8 0 10 1 10 11 9 7 8 8 9 11 11 8 6 5 6 6 6 6 8 9 9 8 8 8 8 8 8 8 7 9 8 9 10 12 13 12 10 13 12 13 14 15 14 14 14 12 13 13 13 13 13 13 13 13 12 11 12 13 13 13 11 13 14 14 15 15 15 15 14 14 13 13 13 13 12 14 13 12 13 14 13
2 2 5 4 6 6 5 5 3 3 3 4 2 6 6 8 2 8 7 9 12 10 10 6 11 10 7 9 11 10 8 7 6 7 7 7 6 5 5 5 6 6 6 5 6 6 7 10 10 12 14 14 11 11 12 14 15 13 12 13 15 14 12 11 11 11 12 13 13 12 13 12 12 12 11 11 12 12 14 14 15 16 15 15 15 15 14 13 14 14 13 13 15 11 13 16 14
1 4 3 4 2 4 1 2 1 1 2 10 3 7 8 8 15 13 10 5 9 5 6 5 10 6 2 8 10 8 7 5 5 6 6 6 4 4 5 6 5 5 5 7 9 9 10 10 9 11 12 10 8 10 13 12 12 10 12 13 13 12 14 14 15 15 15 13 12 12 12 13 12 11 11 10 12 12 13 14 15 15 15 15 15 15 15 15 14 14 14 14 15 13 13 16 14
5 2 6 1 2 3 4 4 3 1 4 9 5 11 6 3 13 3 1 2 7 6 7 5 5 4 4 7 6 5 5 3 2 3 3 3 4 5 5 5 5 6 7 6 8 7 7 8 8 10 9 10 10 10 10 11 11 11 12 12 13 14 14 15 14 15 13 12 11 11 11 11 13 13 11 10 10 13 14 15 15 15 15 15 16 15 15 15 15 14 15 15 14 13 14 12 13
4 2 1 1 3 1 2 3 3 3 6 8 5 7 5 8 12 4 8 5 8 10 7 8 9 6 7 7 6 5 4 4 4 4 4 4 4 5 5 6 5 4 5 5 5 3 4 6 6 7 10 11 11 8 7 8 8 9 10 12 13 13 13 13 13 13 12 12 13 13 13 14 13 12 12 11 11 12 13 14 15 15 14 16 16 16 15 15 15 15 15 14 14 13 14 15 13
2 1 1 0 2 3 3 7 3 4 9 3 10 4 8 10 6 10 14 7 8 9 7 6 8 8 8 8 5 6 7 6 5 4 5 5 5 6 5 5 5 6 5 5 4 3 6 6 4 6 6 6 5 7 8 9 10 10 10 10 10 11 12 12 13 13 12 13 14 14 14 13 15 12 12 13 13 12 13 14 14 15 15 15 15 16 15 16 15 15 15 13 14 15 16 16 14
1 1 3 2 1 3 3 1 5 5 4 4 5 12 8 7 8 10 11 9 6 5 7 8 9 10 8 6 5 5 5 4 4 4 5 5 5 5 5 4 4 5 4 3 3 3 4 2 3 4 5 6 6 8 5 8 7 9 10 11 12 11 13 13 13 12 13 13 13 13 13 14 12 12 12 13 14 14 13 14 14 14 15 15 16 16 15 15 15 16 15 16 15 15 17 15 14
11 12 10 12 7 2 0 12 2 1 3 8 3 14 10 4 0 3 5 9 10 9 7 7 7 8 9 9 7 4 5 4 2 3 4 4 4 6 9 8 4 5 6 7 5 5 5 5 4 4 3 5 5 7 5 6 5 6 6 9 11 11 11 10 11 12 12 13 12 13 13 12 12 14 12 14 15 13 13 13 13 15 15 16 16 16 15 14 16 16 16 13 14 16 16 17 15
Wind_Direction
339 337 327 99 69 99 62 1 285 306 63 243 234 79 227 117 193 75 176 273 332 29 310 323 296 15 246 234 126 99 44 181 227 168 209 138 145 137 139 135 136 133 139 143 143 143 135 136 133 136 123 123 124 116 119 122 115 112 109 106 107 110 108 105 106 106 104 104 100 102 96 92 86 85 83 81 79 80 83 82 80 76 75 76 74 73 70 64 62 60 56 57 57 59 60 60 60
324 329 332 31 77 73 289 113 97 346 36 357 254 136 248 203 55 201 183 109 143 125 340 82 61 73 59 74 122 133 37 18 163 123 70 106 110 114 137 131 136 139 142 147 153 157 140 139 137 138 122 121 125 129 125 121 115 118 114 112 110 109 111 111 109 108 109 109 102 100 97 93 91 87 86 83 79 80 78 81 81 76 78 75 75 74 73 65 62 58 56 56 56 58 60 59 59
322 345 349 20 39 86 95 44 264 153 160 249 272 210 54 60 173 210 199 161 143 158 204 29 33 40 343 324 37 36 215 301 81 20 86 138 131 152 140 135 135 138 139 141 160 148 143 143 139 142 130 127 131 125 119 119 125 119 117 114 114 113 113 111 110 108 109 108 107 101 97 98 94 89 86 85 82 82 80 82 80 78 77 74 71 71 73 69 63 57 56 55 56 57 58 59 58
307 299 210 55 335 26 59 28 108 144 195 215 280 280 164 161 196 190 191 139 148 152 156 15 56 318 210 38 178 69 56 213 314 125 136 161 139 136 138 138 136 127 115 132 136 143 148 148 141 134 125 130 136 116 118 120 122 121 119 120 117 118 115 113 111 111 111 110 106 106 101 97 95 93 91 86 86 85 83 81 80 79 79 78 77 70 70 66 62 59 55 55 54 56 57 58 57
334 330 87 104 112 316 116 190 168 125 231 201 217 265 194 179 170 170 153 345 23 27 54 140 75 360 185 116 360 170 182 51 7 338 109 93 126 142 143 143 137 131 131 136 131 138 137 132 125 133 146 130 116 126 123 126 125 121 121 118 120 121 120 116 114 115 113 112 109 105 105 101 100 97 92 91 86 87 87 80 81 80 77 76 74 73 67 66 63 59 55 55 55 55 56 56 57
357 26 359 85 155 193 55 53 302 214 219 167 161 237 172 169 156 162 116 311 263 117 216 142 160 203 312 331 262 258 253 155 188 360 137 139 140 145 141 142 134 130 133 133 139 111 129 131 136 143 140 129 118 135 129 130 127 128 120 120 120 124 122 120 121 114 117 115 110 108 103 104 106 102 100 96 96 94 90 83 80 75 77 79 75 74 71 68 64 59 56 55 55 55 56 55 56
349 33 355 17 13 64 184 164 222 201 264 164 206 198 167 169 160 136 159 89 201 32 157 177 105 93 49 261 234 228 180 267 232 138 331 144 140 147 147 144 137 137 139 144 149 147 145 145 146 139 155 143 138 141 136 137 130 131 125 123 131 133 129 125 120 125 121 118 115 116 115 106 106 104 99 92 92 94 95 90 87 81 83 79 77 76 74 70 67 62 56 55 55 55 55 56 55
39 142 308 125 223 62 181 204 237 168 254 201 221 156 173 167 150 166 165 149 203 192 111 118 133 102 244 344 192 144 260 210 248 303 139 145 146 149 148 146 139 140 139 148 145 149 160 148 148 145 145 142 140 141 133 137 134 132 128 123 125 123 132 131 123 122 122 121 122 118 115 108 109 98 105 95 93 90 93 93 91 91 86 82 80 76 72 70 68 62 59 57 56 56 56 57 57
343 85 357 60 23 8 51 203 228 240 295 282 255 292 164 165 164 158 172 178 69 88 173 175 208 163 231 117 165 311 294 263 289 318 131 139 150 148 143 145 141 142 146 148 151 168 171 147 152 160 153 144 144 144 138 141 137 137 137 135 132 129 118 119 127 131 125 127 123 123 123 108 116 114 103 103 102 100 97 92 95 93 89 87 81 78 74 67 62 58 58 59 59 58 59 59 60
360 111 273 160 125 249 298 288 150 229 203 220 204 200 163 162 177 171 160 168 182 128 184 9 143 229 151 171 111 273 244 153 17 111 87 127 146 145 149 150 148 145 148 145 157 164 160 143 144 151 152 140 145 135 142 144 143 139 138 139 145 145 144 140 135 130 129 128 124 121 121 118 119 111 114 112 110 105 104 103 98 90 85 81 79 78 73 69 64 59 59 60 60 61 62 62 63
232 10 143 70 12 227 229 264 249 297 247 343 297 177 156 115 141 184 161 125 135 160 164 165 235 168 151 253 226 312 319 270 185 163 158 143 156 156 153 157 155 152 146 145 144 141 152 136 146 150 139 142 137 140 141 139 138 135 135 132 128 128 132 138 137 135 133 127 126 130 127 127 123 120 117 117 112 108 102 104 99 93 86 83 76 70 69 69 69 67 64 63 63 64 64 65 65
331 190 30 130 196 171 237 216 263 252 345 89 254 169 185 166 143 162 181 165 180 156 180 159 228 141 151 183 247 259 352 246 204 159 154 145 160 165 159 157 158 156 147 133 125 121 114 130 132 134 135 141 139 146 142 145 145 146 145 144 145 146 142 142 141 143 141 140 136 136 132 128 125 127 119 119 116 115 115 110 104 97 91 81 77 73 71 72 73 74 70 69 68 67 67 67 67
158 105 90 96 228 167 240 288 271 189 319 236 197 199 142 169 197 192 178 151 155 138 239 201 128 157 185 194 316 289 202 213 201 161 150 140 177 179 159 155 155 152 129 126 122 115 106 105 109 117 134 139 140 145 153 150 153 155 156 155 152 149 145 142 145 146 147 142 138 141 139 134 133 131 128 124 122 118 113 110 108 99 90 85 81 79 77 78 81 82 78 74 72 71 71 71 70
125 183 120 239 85 193 203 256 284 261 273 248 327 141 171 164 219 161 139 159 184 184 272 157 160 155 234 35 252 219 210 203 180 141 88 31 180 184 161 153 152 143 130 130 128 124 114 107 110 107 107 111 119 129 132 135 136 138 138 139 141 145 139 138 137 137 139 143 128 94 101 125 127 128 128 130 127 121 118 116 106 101 95 90 87 84 83 84 85 85 82 79 76 74 73 73 73
210 198 87 128 307 39 272 179 236 226 263 137 245 143 175 264 136 153 177 177 212 113 66 126 160 148 241 166 237 200 189 189 153 125 87 75 54 166 158 153 150 142 142 133 133 131 123 116 114 110 105 103 105 107 118 139 139 135 134 134 135 139 140 141 143 143 145 144 125 108 105 110 112 102 92 101 116 119 120 113 111 104 98 94 92 90 89 89 89 87 85 81 77 76 76 75 74
176 80 86 150 271 157 274 248 309 143 263 181 213 241 150 338 183 145 235 178 154 350 149 192 266 218 33 187 238 180 173 161 154 129 125 111 103 155 148 153 148 150 145 139 137 135 132 126 122 116 115 115 113 113 117 120 132 136 138 138 139 140 142 142 140 143 147 133 124 127 118 108 110 114 118 115 120 119 113 113 112 106 103 99 94 95 95 94 92 90 87 84 80 75 73 75 74
48 82 305 46 285 151 263 187 160 273 242 291 181 181 169 197 325 181 324 114 129 194 201 238 208 8 203 238 306 157 157 147 140 138 139 145 149 155 146 151 149 149 146 148 145 145 139 133 130 122 125 125 124 123 126 130 138 139 139 141 142 142 142 143 147 149 143 130 131 128 105 94 94 89 96 109 113 106 114 112 111 111 105 102 98 97 98 99 97 93 89 86 85 80 69 60 70
70 176 128 262 198 174 222 209 185 185 168 210 189 204 144 171 205 203 64 27 99 164 205 284 357 353 315 290 260 149 142 150 158 155 167 162 168 163 162 163 161 165 163 157 156 150 144 141 137 134 132 134 134 132 136 142 141 133 141 143 143 144 144 143 142 134 131 131 130 120 118 118 118 122 124 113 117 110 114 117 118 119 113 108 105 99 101 100 99 96 91 89 86 84 74 56 40
149 145 115 223 187 235 158 197 231 126 252 188 198 197 190 224 151 211 138 229 149 179 232 197 256 289 338 356 135 147 156 164 166 173 170 172 177 173 167 165 171 164 171 168 165 163 153 146 145 143 144 145 139 138 142 138 131 133 132 135 141 137 138 131 136 137 133 132 126 131 132 133 139 141 136 138 140 138 131 118 117 115 110 108 108 106 99 100 99 95 94 91 88 83 72 72 67
233 122 213 242 213 208 199 194 218 186 177 173 169 216 190 225 163 105 217 192 181 199 201 233 228 227 196 186 158 159 168 171 175 176 181 182 182 177 172 172 177 177 173 173 166 166 161 156 157 152 152 152 147 145 142 143 141 137 140 137 135 138 135 142 144 143 140 141 143 142 142 149 148 152 155 151 143 132 132 126 120 108 109 105 87 63 85 93 88 94 97 91 82 78 84 83 82
259 110 198 231 199 144 240 177 213 232 184 184 187 142 195 237 187 156 200 128 230 238 217 190 209 209 180 181 169 166 173 175 183 187 187 190 190 189 182 179 179 176 174 165 168 173 170 162 156 160 156 155 151 151 153 157 150 141 146 147 145 145 147 150 154 151 150 149 150 150 155 153 155 165 160 145 132 127 94 85 85 84 83 88 94 89 72 75 75 66 71 86 98 101 94 98 99
98 205 217 210 127 203 237 205 210 194 215 157 160 143 217 104 92 207 159 194 219 211 223 215 220 185 165 172 180 174 180 183 188 191 194 191 189 191 185 177 176 174 168 175 178 173 174 167 166 162 161 161 160 161 163 161 154 158 160 160 152 154 156 160 163 159 157 158 157 156 152 148 157 158 158 157 153 135 130 130 125 117 109 113 105 113 109 106 90 93 108 112 108 106 110 111 120
236 292 272 339 237 172 232 208 211 159 166 170 157 218 100 164 223 214 197 215 236 213 202 207 211 173 174 164 165 181 185 190 192 195 192 192 197 196 191 179 176 179 177 181 176 175 172 170 170 164 166 163 165 160 159 165 171 167 164 166 160 167 166 164 170 168 166 164 162 160 154 160 160 162 165 170 167 156 155 149 144 134 137 134 127 122 122 111 108 101 101 109 125 109 104 101 106
202 225 162 270 223 203 181 220 193 134 146 224 209 72 168 181 236 201 217 237 226 229 255 223 176 144 150 163 183 182 188 191 197 199 194 195 194 193 189 182 179 171 177 180 179 176 175 175 171 170 170 167 166 166 167 172 173 170 173 171 173 171 167 175 176 174 166 169 168 167 162 162 162 163 170 167 171 161 159 156 145 137 140 153 137 125 127 117 102 106 104 102 104 105 111 105 97
175 249 201 248 35 238 237 212 272 204 240 313 58 158 237 190 201 61 240 242 232 244 293 186 143 149 165 173 184 192 192 198 201 202 203 205 201 197 195 190 176 173 184 181 178 176 180 173 172 177 173 173 168 168 174 175 176 176 178 178 178 179 177 180 179 168 171 173 173 166 162 162 164 163 167 171 158 162 155 153 153 151 148 160 135 132 136 138 129 121 118 112 115 114 116 107 100
153 204 145 144 238 240 228 39 269 228 263 108 86 260 276 251 290 268 252 250 208 168 126 155 151 161 179 189 186 187 195 198 200 199 204 196 191 192 200 195 186 187 189 176 179 181 176 173 176 180 176 176 173 171 177 174 182 182 187 185 181 181 184 181 173 178 178 171 178 176 172 167 170 169 168 165 159 165 162 159 153 161 158 167 146 148 155 141 145 130 127 130 119 135 124 162 103
144 109 153 163 262 197 252 197 245 249 226 174 197 273 272 299 93 277 265 266 142 140 164 175 163 183 189 189 192 197 193 199 199 200 197 202 200 199 201 198 196 194 183 185 185 180 174 174 182 181 178 176 172 179 179 183 182 190 190 184 181 186 182 174 182 183 180 185 182 177 176 175 169 169 166 167 167 162 164 162 167 162 158 172 158 159 160 153 155 156 162 155 149 140 161 189 131
71 136 87 14 340 278 266 222 254 113 284 169 167 254 262 284 181 241 247 193 161 165 184 182 190 191 191 194 194 200 204 206 200 191 199 199 203 201 199 198 199 191 190 192 185 174 175 183 182 182 180 178 178 184 182 183 187 194 192 182 187 187 174 180 184 184 189 191 185 181 179 178 171 171 167 167 168 166 169 171 170 165 175 173 164 160 162 156 162 171 169 168 168 150 163 186 154
182 98 296 302 349 337 238 199 229 142 265 162 171 332 290 191 227 235 238 173 173 181 186 197 201 200 198 196 197 200 208 201 197 203 208 206 205 202 203 201 197 195 200 190 182 179 183 184 182 186 181 181 183 184 185 188 188 191 189 192 190 179 182 181 185 190 192 191 188 186 182 178 176 170 174 171 171 172 171 169 174 181 175 171 167 167 161 161 155 167 178 169 139 128 153 156 125
118 49 168 344 2 329 316 242 61 127 260 158 143 305 261 247 230 250 113 151 160 179 215 210 212 206 206 202 204 211 211 202 205 210 210 209 208 206 209 204 196 197 192 190 186 193 187 182 184 181 185 186 186 186 186 189 190 189 193 196 189 176 185 186 193 192 190 189 190 190 183 181 177 175 169 175 169 171 174 178 178 182 180 174 169 167 169 168 167 169 190 170 194 166 179 189 164
194 266 64 218 13 276 290 201 178 149 206 121 101 230 272 274 271 259 221 170 165 207 219 217 216 215 213 213 211 214 217 210 211 214 216 215 213 211 213 209 198 193 186 192 197 196 184 184 183 186 187 188 187 189 190 191 187 190 191 194 192 184 186 192 193 189 190 192 188 191 187 184 180 179 177 170 175 172 174 180 186 187 174 170 169 178 170 179 171 180 170 165 159 152 178 187 174
14 34 300 326 151 277 297 278 161 182 310 121 121 268 251 266 283 278 211 182 181 214 224 220 219 220 219 216 218 221 223 216 225 225 219 217 214 212 210 209 200 191 194 195 196 187 192 190 188 188 186 189 192 192 192 191 190 191 192 192 193 189 189 194 192 192 193 189 190 189 190 189 181 184 179 173 171 179 179 184 191 173 174 166 171 172 167 179 182 183 188 162 166 189 166 203 192
353 109 276 287 267 259 343 316 219 212 120 286 168 249 311 284 247 303 189 178 199 220 233 224 221 222 221 219 220 223 226 226 224 222 219 215 217 215 211 209 204 200 196 189 190 192 196 194 190 191 189 192 192 195 194 195 192 193 193 193 195 191 195 199 195 191 190 189 189 191 190 191 187 184 182 179 175 181 186 188 181 175 168 169 172 179 184 181 177 183 192 190 174 182 185 194 213
316 17 227 216 260 313 303 300 350 243 186 257 249 240 247 256 278 270 224 200 207 230 236 234 226 221 218 219 220 221 221 220 220 217 219 213 214 213 211 210 208 203 199 197 195 193 197 195 194 196 194 194 192 192 195 195 195 193 195 197 194 197 203 202 197 187 195 191 188 196 190 194 191 186 182 181 185 188 186 184 175 174 171 170 176 179 194 176 186 182 191 200 184 176 192 193 205
247 306 330 315 305 227 246 313 273 75 329 225 291 263 270 269 270 266 240 202 214 230 229 232 228 222 223 220 222 223 222 223 226 219 218 215 214 212 210 208 208 205 203 200 199 200 199 198 196 200 198 195 194 194 194 192 193 195 194 197 202 206 210 207 195 197 198 187 197 197 192 197 190 187 187 185 185 186 183 183 177 179 174 176 173 182 187 185 188 194 187 198 198 199 188 199 195
212 199 216 218 283 289 289 253 282 174 267 275 242 249 273 280 278 272 236 208 214 236 238 245 241 236 231 226 227 226 227 232 231 224 219 214 212 210 209 208 208 206 205 202 202 201 201 200 202 203 201 195 195 191 184 187 187 192 193 196 213 215 208 203 202 206 193 200 202 195 197 196 193 191 192 190 188 184 184 185 182 180 180 171 178 185 192 190 193 188 198 185 194 215 201 186 174
108 137 148 254 268 282 277 268 258 7 300 242 245 253 263 274 276 278 272 209 229 241 244 241 241 235 231 228 223 224 225 230 230 223 217 213 212 212 211 207 208 208 208 203 203 206 202 202 199 206 201 194 191 189 191 187 191 195 202 204 211 204 202 201 205 207 204 207 200 199 198 200 198 195 195 189 192 189 190 186 181 183 181 181 187 197 195 197 195 189 185 183 181 192 219 190 187
185 174 220 287 222 277 242 242 348 324 79 288 252 281 275 271 278 278 278 196 237 227 237 245 243 233 232 226 227 223 228 242 243 203 208 208 209 209 207 207 202 208 212 207 208 206 207 207 205 205 198 199 200 197 194 195 196 194 195 204 205 199 196 199 211 209 210 207 204 201 203 203 200 198 196 194 193 191 188 187 188 188 183 191 197 195 194 191 186 184 168 191 201 190 209 187 183
74 214 218 338 276 245 286 253 349 309 55 270 304 307 288 285 282 285 278 244 244 225 219 234 232 235 229 226 228 231 233 235 223 225 209 208 208 207 205 208 208 209 209 210 212 211 210 210 211 205 202 201 205 201 194 201 201 205 201 206 198 205 212 212 212 212 209 209 206 207 206 205 202 202 198 194 194 196 194 190 195 190 192 189 187 193 189 193 193 189 185 189 188 214 216 196 185
174 99 20 255 243 19 308 292 355 294 193 283 323 307 290 289 292 276 277 241 250 244 231 238 226 228 224 220 216 219 225 229 224 218 212 206 203 205 206 208 209 208 213 215 214 214 211 211 210 207 206 204 204 204 204 206 204 205 210 207 204 203 205 211 218 217 213 211 216 211 214 209 202 205 200 197 200 200 196 197 194 193 195 192 191 190 192 198 190 192 192 198 182 194 205 215 194
310 192 206 251 279 240 191 268 313 276 317 205 296 290 290 305 332 333 314 295 286 283 277 252 251 235 239 250 245 224 224 220 226 222 219 205 203 207 205 207 205 209 211 212 212 212 212 212 210 209 208 205 205 204 205 199 191 194 189 153 127 201 198 190 213 228 217 212 216 211 218 205 205 207 203 203 202 203 202 200 198 198 195 196 195 197 197 198 194 196 193 192 193 194 201 201 204
319 235 182 200 175 265 297 314 350 0 339 327 29 354 302 294 300 266 288 338 320 286 327 272 252 242 236 234 234 231 231 223 218 217 209 203 204 207 209 209 208 212 214 215 211 212 212 214 211 210 210 208 207 206 203 194 195 193 180 189 198 202 216 207 212 216 208 208 213 214 210 207 207 209 207 205 207 205 206 204 202 199 201 197 199 202 199 194 203 198 197 195 201 209 199 181 206
65 275 173 160 162 188 322 341 28 324 317 267 73 129 272 322 295 287 301 320 295 293 280 271 266 240 222 229 233 230 224 227 230 231 216 207 213 207 209 208 209 211 218 213 212 213 214 216 211 209 210 210 208 206 197 195 202 202 201 204 207 208 215 223 222 222 217 219 220 213 213 207 208 209 210 208 208 209 208 206 206 206 204 202 201 200 202 203 201 201 193 199 205 200 187 203 201
247 247 132 127 94 285 293 86 144 241 266 288 160 159 194 309 293 273 286 310 293 308 303 281 259 241 229 229 234 233 226 221 216 218 214 210 206 202 207 209 208 213 216 208 212 212 212 214 210 209 211 211 206 199 197 198 203 205 208 213 216 221 220 230 217 221 214 209 214 218 212 211 210 211 212 210 209 210 208 209 209 209 207 206 201 206 206 204 202 203 201 204 201 202 202 205 202
220 211 181 245 224 241 167 184 239 247 12 295 349 209 262 260 260 301 342 314 313 301 290 284 263 250 239 237 238 237 229 220 211 214 215 210 209 210 212 211 213 215 213 208 209 210 211 212 211 210 212 211 206 198 199 203 207 207 210 212 222 226 229 235 229 212 210 207 218 213 216 214 210 211 213 212 211 210 210 211 209 211 210 208 206 210 210 205 204 199 198 199 203 207 207 215 206
251 182 102 46 77 94 161 146 30 325 59 277 220 197 186 281 268 328 330 256 273 264 267 273 261 247 245 242 245 242 236 228 222 222 218 215 213 212 211 213 211 213 212 211 212 211 213 210 212 211 216 211 207 201 201 205 208 209 213 217 223 228 227 235 223 221 213 203 220 215 217 214 212 210 212 215 212 211 213 212 212 212 211 209 208 211 209 208 208 208 205 204 203 205 208 210 213
134 88 94 6 38 44 28 83 95 51 339 257 231 211 147 291 276 239 183 224 201 241 293 279 270 262 254 244 240 239 229 223 220 220 224 223 217 216 206 208 215 212 210 207 212 210 210 208 211 214 219 214 208 206 201 207 207 208 216 218 222 227 227 227 225 231 220 214 222 221 216 217 210 213 208 215 214 213 214 214 214 213 212 211 210 210 211 209 208 208 207 206 207 207 208 210 217
103 78 86 4 351 10 32 340 33 96 272 262 247 190 175 180 289 266 234 265 221 201 246 267 276 265 247 237 235 234 228 222 218 213 228 225 230 228 203 220 218 213 198 208 212 209 208 210 209 217 223 218 214 211 205 211 209 213 218 219 223 226 226 225 226 230 222 223 222 225 219 217 217 215 210 214 216 213 214 216 216 215 214 212 214 212 213 210 209 207 207 207 211 211 213 211 215
79 83 32 64 281 22 295 18 302 203 208 221 345 153 349 244 236 264 274 244 246 222 220 237 248 260 256 246 237 233 226 215 209 212 213 210 209 207 204 219 213 207 208 208 210 206 209 211 209 213 225 219 215 211 209 212 211 215 217 220 226 227 226 226 230 232 229 228 224 226 216 220 215 216 214 216 218 210 212 213 212 214 215 214 216 212 215 210 207 207 209 210 211 209 209 209 210
107 173 140 83 345 22 253 274 221 300 292 252 257 203 247 263 288 241 243 259 245 233 228 239 240 245 253 251 240 237 225 210 210 205 205 206 205 204 204 207 207 211 212 212 210 206 208 211 211 212 228 221 214 212 215 215 217 219 219 221 225 225 228 226 229 231 232 229 226 225 220 220 217 219 216 218 215 210 212 215 214 217 218 217 215 216 214 211 208 210 209 211 212 213 210 212 217
209 136 138 179 141 175 273 214 246 240 227 274 276 68 235 100 247 239 226 248 274 265 247 243 249 252 259 276 297 273 259 235 210 206 208 206 208 200 199 205 208 212 215 216 211 212 206 214 212 216 230 229 212 215 215 218 222 223 222 223 226 225 228 228 231 229 233 230 230 228 226 221 222 224 221 224 213 212 214 215 216 217 217 217 215 214 215 212 211 213 214 215 216 212 211 213 218
216 161 83 85 230 127 209 209 184 271 321 330 225 206 197 214 262 301 245 262 269 261 260 248 260 252 260 277 266 257 238 226 206 210 220 224 212 202 207 210 214 214 216 216 218 212 206 217 214 217 222 227 215 214 216 218 223 223 223 224 226 226 229 232 236 234 235 231 233 229 232 226 227 227 225 221 217 210 213 214 216 218 216 216 216 215 213 213 211 212 216 213 216 209 212 214 216
238 116 200 208 163 121 5 349 336 29 44 248 170 300 274 303 296 272 286 292 267 304 276 252 250 274 259 245 250 248 240 228 208 210 214 220 210 219 214 212 218 220 214 211 216 207 208 213 211 220 229 234 221 217 220 220 226 224 227 226 228 228 229 229 230 233 233 233 232 232 233 233 231 228 227 217 218 211 213 213 215 217 216 216 216 215 214 214 212 214 217 215 216 210 212 216 214
88 186 241 233 164 117 131 240 322 43 225 275 146 226 254 75 278 332 1 354 292 304 294 303 305 315 281 257 253 255 258 269 298 286 288 260 231 223 224 228 222 216 215 220 226 215 214 215 209 217 227 229 232 220 219 219 222 223 229 229 229 227 228 231 232 237 235 234 233 233 235 237 231 229 226 224 214 213 214 212 215 216 215 214 216 215 214 214 212 217 218 218 217 208 215 219 217
169 187 245 116 255 290 316 90 293 286 273 268 279 256 253 195 248 313 289 272 280 282 302 326 308 303 268 275 276 273 294 309 296 294 284 271 248 238 230 231 239 244 241 235 242 207 216 220 220 215 225 226 229 222 221 226 219 224 224 227 227 229 230 233 234 235 236 234 234 232 232 234 238 233 230 227 219 218 212 213 214 217 214 215 215 215 213 214 212 218 218 218 216 209 214 218 216
54 347 323 244 106 196 123 204 192 116 273 12 287 116 253 207 220 239 266 270 267 282 307 305 298 286 282 275 303 350 332 309 301 289 269 264 259 249 246 247 245 235 239 248 247 214 219 224 217 231 243 252 247 228 217 220 221 220 228 230 234 231 231 231 232 231 232 231 234 234 235 237 236 233 231 229 227 222 215 214 214 214 215 214 213 215 212 213 212 218 217 216 215 209 215 217 216
131 186 275 349 216 216 127 297 157 184 205 211 278 305 272 248 224 234 251 270 298 341 315 313 322 327 330 332 314 301 289 280 289 280 271 263 277 292 281 275 294 320 307 303 331 309 308 321 271 280 272 276 264 253 235 234 228 227 229 231 233 230 232 230 233 230 232 235 236 234 236 236 239 236 230 230 230 227 220 217 215 214 214 213 213 214 211 212 213 217 217 216 215 211 216 219 215
174 169 207 187 139 174 227 264 60 146 151 246 215 266 284 276 17 261 336 359 16 3 349 342 351 354 351 348 341 322 335 334 272 278 272 288 299 327 348 356 344 341 353 2 358 357 352 344 322 319 311 276 283 292 286 289 294 280 259 248 244 242 239 236 232 233 230 236 235 235 235 237 237 239 229 232 232 229 225 218 216 217 215 215 215 214 211 209 213 216 217 215 215 212 216 219 214